Regional Weather Roundup
Issued by NWS Charleston, SC

Current Version | Previous Version | Graphics & Text | Print | Product List | Glossary On
Versions: 1 2 3 4 5 6 7 8 9 10 11 12 13 14 15 16 17 18 19 20 21 22 23 24 25 26 27 28 29 30 31 32 33 34 35 36 37 38 39 40 41 42 43 44 45 46 47 48 49 50
000 ASUS42 KCHS 221827 RWRCHS REGIONAL WEATHER ROUNDUP NATIONAL WEATHER SERVICE CHARLESTON SC 200 PM EDT WED MAR 22 2017 NOTE: "FAIR" INDICATES FEW OR NO CLOUDS BELOW 12,000 FEET WITH NO SIGNIFICANT WEATHER AND/OR OBSTRUCTIONS TO VISIBILITY. NOT ALL STATIONS ARE QUALITY CONTROLLED. USE DATA WITH CAUTION... ESPECIALLY DEWPOINT OBSERVATIONS. SCZ027-030-031-034>040-042>050-221900- ...SOUTHEAST SOUTH CAROLINA... CITY SKY/WX TMP DP RH WIND PRES REMARKS N CHARLESTON MOSUNNY 75 43 31 N17 30.07S 6HR MIN TEMP: 61; 6HR MAX TEMP: 75; WATERFRONT PRK N/A 68 50 52 N9 30.05S JOHNS ISLAND FAIR 73 46 38 N14G20 30.07S PINOPOLIS N/A 63 52 67 N8 30.00R MONCKS CORNER FAIR 70 39 32 NE12G17 30.09S SUMMERVILLE FAIR 72 43 35 N13 30.09S BEAUFORT MCAS MOSUNNY 79 51 37 N14 30.07S 6HR MIN TEMP: 60; 6HR MAX TEMP: 79; BEAUFORT ARPT FAIR 73 48 40 NE9 30.07S HILTON HEAD IS MOSUNNY 73 55 53 NE12 30.07S WALTERBORO CLEAR 72 45 37 NE14 30.09S ALLENDALE FAIR 73 48 40 CALM 30.09R ...SOUTHERN MIDLANDS AND PEE DEE... CITY SKY/WX TMP DP RH WIND PRES REMARKS GEORGETOWN FAIR 72 43 35 N16 30.09S KINGSTREE FAIR 68 37 32 N9G18 30.11S ORANGEBURG SUNNY 71 44 37 N15 30.11R 6HR MIN TEMP: 58; 6HR MAX TEMP: 72; BARNWELL FAIR 73 48 40 NE13G18 30.11R AIKEN FAIR 70 46 43 NE8 30.15F MANNING FAIR 70 43 37 NE15 30.10F COLUMBIA CLOUDY 70 40 33 N12 30.12R 6HR MIN TEMP: 61; 6HR MAX TEMP: 73; SUMTER PTSUNNY 70 41 35 N13G20 30.10S 6HR MIN TEMP: 59; 6HR MAX TEMP: 71; FLORENCE MOSUNNY 67 35 30 N18 30.13R 6HR MIN TEMP: 58; 6HR MAX TEMP: 68; MYRTLE BEACH PTSUNNY 70 48 46 N20 30.09F N MYRTLE BEACH PTSUNNY 68 49 50 N10G22 30.09S 6HR MIN TEMP: 60; 6HR MAX TEMP: 69; $$ GAZ063-065-086>088-099>101-113>116-118-119-134>141-150-221900- ...SOUTHEAST GEORGIA... CITY SKY/WX TMP DP RH WIND PRES REMARKS SAVANNAH ARPT PTSUNNY 79 56 45 NE8 30.06S 6HR MIN TEMP: 58; 6HR MAX TEMP: 79; HUNTER AAF MOSUNNY 80 61 52 NE10 30.03F 6HR MIN TEMP: 61; 6HR MAX TEMP: 80; FORT STEWART MOSUNNY 79 56 45 NE7 30.03F 6HR MIN TEMP: 63; 6HR MAX TEMP: 80; STATESBORO PTSUNNY 76 58 53 N9G17 30.08S SYLVANIA PTCLDY N/A N/A N/A NE9 30.09S CLAXTON FAIR 78 60 55 NW8 30.07F ...CSRA...CENTRAL AND FAR SOUTHEAST GEORGIA... CITY SKY/WX TMP DP RH WIND PRES REMARKS THOMSON CLOUDY 72 57 60 MISG 30.17S AUGUSTA-BUSH CLOUDY 74 53 48 NE8 30.10S 6HR MIN TEMP: 53; 6HR MAX TEMP: 75; AUGUSTA-DANIEL CLOUDY 72 49 44 NE9 30.12R SWAINSBORO MOCLDY 75 55 50 NE8 30.10S VIDALIA MOSUNNY 79 57 47 N7 30.07F EASTMAN FAIR 82 30 14 N7 30.10S HAZLEHURST FAIR 82 55 38 NW3G16 30.05F ALMA SUNNY 82 53 36 NW10 30.05F 6HR MIN TEMP: 60; 6HR MAX TEMP: 82; WAYCROSS SUNNY 87 58 38 NW10G18 30.04F JESUP FAIR 82 50 32 N10G16 30.04F BAXLEY FAIR 82 59 44 N8 30.05F BRUNSWICK SUNNY 84 59 42 NW10 30.04F SAINT SIMONS SUNNY 83 54 36 N14 30.03F 6HR MIN TEMP: 62; 6HR MAX TEMP: 84; $$ SCZ027-028-034-036>038-045-046-048>050-GAZ119-141-221900- ...LAKE AND SUPPLEMENTAL COASTAL OBSERVATIONS... STATION/POSITION TIME TEMP WIND PRES WAVE SWELL AIR SEA DIR/SP/G HT/PER HT/PER/DIR (UTC) (F) (DEG/KT/KT) (MB) (FT/S) (FT/S/D) WINYAH BAY 1730 67 10/ 10 1018.0F LAKE MURRAY 1820 68 10/ 2/ 9 1019.6S ACE BASIN NERRS 1745 75 20/ 5 1018.0S FORT PULASKI 1800 70 60 60/ 12/ 15 1018.3 SAPELO ISLAND 1800 81 30/ 9 1017.0 $$ ANZ835-935-AMZ111-154-330-350-352-354-370-450-454-472-221900- ...C-MAN AND BUOY OBSERVATIONS... STATION/POSITION TIME TEMP WIND PRES WAVE SWELL AIR SEA DIR/SP/G HT/PER HT/PER/DIR (UTC) (F) (DEG/KT/KT) (MB) (FT/S) (FT/S/D) BUOY 41004 1750 63 66 20/ 21/ 25 1017.5R 3/ 4 2/ 90/11 BUOY 41008 1750 65 63 30/ 8/ 10 1017.8R 2/11 2/120/11 FOLLY BEACH CMAN 1800 65 70/ 12/ 14 1018.9R CAPERS NEARSHORE 1808 62 80/ 12/ 16 1018.1S FRIPP NEARSHORE 1808 63 61 90/ 8/ 10 1018.0R STATION/POSITION TIME TEMP WIND PRES WAVE SWELL AIR SEA DIR/SP/G HT/PER HT/PER/DIR (UTC) (F) (DEG/KT/KT) (MB) (FT/S) (FT/S/D) 5E ST. MARYS GA 1800 65 N/A 2/11 2/100/11 FRYING PAN BUOY 1810 60 66 30/ 21/ 27 1019.1 BUOY 41025 1750 53 73 10/ 31/ 39 1018.4R 10/ 9 CAPE LOOKOUT NC 1800 55 30/ 24/ 27 1019.4R BUOY 41002 1750 72 75 300/ 23/ 27 1014.4R 10/ 8 2/ 70/11 BUOY 41010 NOT AVBL ST AUGUSTINE FL 1800 81 65 350/ 10/ 13 1017.7F $$

USA.gov is the U.S. government's official web portal to all federal, state and local government web resources and services.